User: anonymous   Login
Location: Irma
(52.9170°N, 111.2330°W)
Time: 07:10:28
(UTC-07:00)
Language:

Meteor 1-24 Rocket - Orbit

View from above orbital plane
View from above orbital plane
View from above satellite
View from above satellite

Ground track
Ground track

The orbit data is extracted from the following two-line orbital elements,

1 08800U 76032B   14324.80779284  .00000381  00000-0  20138-3 0  1668
2 08800 081.2529 051.1201 0093147 325.3307 154.1785 14.09980155985805
Epoch (UTC): 20 November 2014 19:23:13
Eccentricity: 0.0093147
inclination: 81.2529°
perigee height: 792 km
apogee height: 927 km
right ascension of ascending node: 51.1201°
argument of perigee: 325.3307°
revolutions per day: 14.09980155
mean anomaly at epoch: 154.1785°
orbit number at epoch: 98580

The dashed part of the orbit path shows where the satellite is in the earth's shadow,  

DLR